Location: ?????
(55.8833°N, 37.6500°E)
Time: 08:48:51
(UTC+00:00)

Cosmos 1703 Rocket - Pass Details

Date: 27 February 2020
Orbit: 606 x 633 km, 82.5° (Epoch: 09 April)

Event Time Altitude Azimuth Distance (km) Brightness Sun altitude
Rises 15:41:19 0° 350° (N) 2,929 7.1 -6.8°
Reaches altitude 10° 15:43:37 10° 355° (N) 2,021 6.2 -7.1°
Maximum altitude 15:48:00 54° 73° (ENE) 777 3.7 -7.7°
Drops below altitude 10° 15:52:24 10° 151° (SSE) 2,016 5.9 -8.4°
Sets 15:54:40 0° 156° (SSE) 2,921 6.8 -8.7°
